Location: *
(37.5724°S, 58.0067°E)
Time: 09:49:27
(UTC+00:00)

Cosmos 1980 - Pass Details

Date: 24 January 2021
Orbit: 840 x 846 km, 71.0° (Epoch: 07 March)

Event Time Altitude Azimuth Distance (km) Brightness Sun altitude
Rises 21:23:14 0° 190° (S) 3,441 7.7 -31.5°
Reaches altitude 10° 21:26:19 10° 174° (S) 2,499 7.0 -31.3°
Maximum altitude 21:30:39 22° 125° (SE) 1,804 5.9 -31.1°
Drops below altitude 10° 21:34:57 10° 75° (ENE) 2,477 6.2 -30.8°
Enters shadow 21:35:44 - 70° (ENE) 2,701 6.3 -30.7°
